Flag for Argentina Weather past 2 weeks in Salta, Salta, Argentina

Now
59 °F

Clear.


Feels Like: 58 °F
Forecast: 46 / 66 °F
Wind: 6 mph from North

Location: Salta Aerodrome

Current Time: Sep 3, 2015 at 10:36:08 PM

Latest Report: Sep 3, 2015 at 10:00 PM


Visibility: 10 mi

Pressure: 30.24 "Hg (26.28 "Hg at 1184m altitude)

Humidity: 55%

Dew point: 43 °F

Location of SaltaLocation

Historic Weather in Salta — Graph

°F

Salta temperature yesterday

Maximum temperature yesterday: 75 °F (at 3:00 PM)
Minimum temperature yesterday: 59 °F (at 12:00 AM)
Average temperature yesterday: 65 °F

Past Weeks' High & Low Weather Summary

 TemperatureHumidityPressure
High95 °F (Aug 30, 4:00 PM)94% (Aug 22, 7:00 AM)30.33 "Hg (Aug 22, 7:00 AM)
Low39 °F (Aug 20, 8:00 AM)8% (Aug 22, 5:00 PM)29.74 "Hg (Aug 22, 3:00 PM)
Average62 °F55%30.05 "Hg
* Reported Aug 19 9:00 PM — Sep 3 9:00 PM, Salta, Weather by CustomWeather, © 2015

Note: Actual official high and low records may vary slightly from our data, if they occured in-between our weather recording intervals... More about our weather records

Advertising

Salta weather history for previous 24 hours

 ConditionsComfort  
Time TempWeatherWind HumidityBarometerVisibility
9:00 PM
Thu, Sep 3
59 °FOvercast.5 mph55%30.21 "HgN/A
8:00 PM59 °FOvercast.9 mph55%30.21 "HgN/A
7:00 PM61 °FOvercast.12 mph52%30.18 "HgN/A
6:00 PM61 °FSunny.8 mph55%30.15 "Hg10 mi
5:00 PM63 °FSunny.9 mph52%30.15 "Hg10 mi
4:00 PM63 °FSunny.8 mph52%30.15 "Hg10 mi
3:00 PM64 °FSunny.8 mph49%30.15 "Hg10 mi
2:00 PM64 °FSunny.12 mph49%30.18 "Hg10 mi
1:00 PM64 °FSunny.13 mph49%30.21 "Hg10 mi
12:00 PM63 °FPartly sunny.12 mph56%30.21 "HgN/A
11:00 AM61 °FPartly sunny.8 mph59%30.24 "HgN/A
10:00 AM57 °FPartly sunny.9 mph67%30.24 "HgN/A
9:00 AM55 °FBroken clouds.7 mph72%30.21 "HgN/A
8:00 AM55 °FPartly sunny.6 mph67%30.21 "HgN/A
7:00 AM57 °FOvercast.5 mph63%30.18 "HgN/A
6:00 AM57 °FPassing clouds.6 mph63%30.18 "HgN/A
5:00 AM57 °FPassing clouds.8 mph63%30.18 "HgN/A
4:00 AM59 °FPassing clouds.8 mph63%30.18 "HgN/A
3:00 AM61 °FPartly cloudy.7 mph59%30.18 "HgN/A
2:00 AM61 °FPartly cloudy.5 mph63%30.21 "HgN/A
1:00 AM61 °FPassing clouds.7 mph63%30.21 "HgN/A
12:00 AM61 °FPassing clouds.5 mph63%30.21 "HgN/A
11:00 PM
Wed, Sep 2
63 °FPassing clouds.2 mph59%30.18 "HgN/A
10:00 PM63 °FPartly cloudy.6 mph59%30.15 "HgN/A
Weather by CustomWeather, © 2015

See weather overviewHow to use our weather pages